Regional Weather Roundup
Issued by NWS

Home | Current Version | Previous Version | Text Only | Print | Product List | Glossary On
Versions: 1 2 3 4 5 6 7 8 9 10 11 12 13 14 15 16 17 18 19 20 21 22 23 24 25 26 27 28 29 30 31 32 33 34 35 36 37 38 39 40 41 42 43 44 45 46 47 48 49 50
000
ASUS44 KLUB 180401
RWRTX
WEST TEXAS WEATHER ROUNDUP
NATIONAL WEATHER SERVICE LUBBOCK TX
1100 PM CDT WED SEP 17 2014

NOTE: "FAIR" INDICATES FEW OR NO CLOUDS BELOW 12,000 FEET WITH NO
SIGNIFICANT WEATHER AND/OR OBSTRUCTIONS TO VISIBILITY.

TXZ004-006>008-010-012-014-016-OKZ002-180500-
TEXAS PANHANDLE/OKLAHOMA PANHANDLE

CITY           SKY/WX    TMP DP  RH WIND       PRES   REMARKS
AMARILLO       CLOUDY    70  63  78 S17       30.03S
BORGER         CLOUDY    73  62  68 SW5       30.00R
CANADIAN       CLOUDY    71  66  85 SW6       29.95R
DALHART        CLOUDY    68  56  65 SW7       30.03S
DUMAS          CLOUDY    65  59  80 S7        30.02S
GUYMON         CLOUDY    69  62  78 S7        29.95R
HEREFORD       LGT RAIN  68  66  92 CALM      30.06R
PERRYTON       CLOUDY    71  61  71 SW8       29.96S
$$

TXZ026-029-035-045-048-180500-
SOUTHERN PANHANDLE/SOUTH PLAINS/ROLLING PLAINS

CITY           SKY/WX    TMP DP  RH WIND       PRES   REMARKS
CHILDRESS      CLOUDY    75  71  87 S12       29.94F
SEMINOLE       CLOUDY    67  66  95 E10       30.04F
LUBBOCK        CLOUDY    67  65  93 SE13      30.02S
SNYDER         CLOUDY    70  69  96 E9        29.99F
$$

TXZ052-054-060>062-072-078-127-140-154-169-180500-
PERMIAN BASIN/CONCHO VALLEY/BIG COUNTRY/EDWARDS PLATEAU

CITY           SKY/WX    TMP DP  RH WIND       PRES   REMARKS
ABILENE        CLOUDY    74  70  87 SE5       29.97S
BIG SPRING     CLOUDY    74  69  86 NE14      30.00F
JUNCTION       CLOUDY    77  72  84 E5        29.95R
MIDLAND        CLOUDY    75  69  81 NE16      29.99R
ODESSA         LGT RAIN  76  67  73 NE15      30.00R
SAN ANGELO     MOCLDY    77  69  76 E5        29.95F
SONORA         MOCLDY    77  70  78 NE5       30.01R
SWEETWATER     CLOUDY    73  72  95 NE7       30.02S
WINK           MOCLDY    81  64  56 SE8       29.93S
$$

TXZ055-058-074-075-080-082-180500-
FAR WEST/SOUTHWEST MOUNTAINS/TRANS PECOS

CITY           SKY/WX    TMP DP  RH WIND       PRES   REMARKS
ALPINE         MOCLDY    73  62  70 S13       30.10R
DRYDEN           N/A     81  69  67 E6        29.92R
EL PASO        CLOUDY    69  66  90 NE13      30.01S
FORT STOCKTON  MOCLDY    76  66  71 SE8       29.97R
GUADALUPE PASS CLOUDY    68  59  73 NE20      30.11R
MARFA          MOCLDY    68  61  77 NE6       30.09R
PRESIDIO       FAIR      83  63  50 NE13G18   29.91R
$$

TXZ014-016-019-021>030-083-180500
TEXAS TECH WEST TEXAS MESONET/TEXAS PANHANDLE/NORTHERN SOUTH PLAINS

CITY           SKY/WX    TMP DP  RH WIND       PRES   REMARKS
ABERNATHY 5ENE   N/A     67  65  93 SE10      30.04S
AMARILLO 9NNE    N/A     68  65  89 E5        30.02R
AMARILLO 7SSE    N/A     67  65  93 S5        30.05R
AMHERST 1NE      N/A     65  64  97 SE8       30.03S
BOOTLEG 11WNW    N/A     65  62  89 SE2       30.09R
CANADIAN 6E      N/A     72  65  77 SW6       29.93R
CAPROCK CYN SP   N/A     70  67  89 S9        29.99S
CHILDRESS 2NNE   N/A     75  69  82 S9        29.93F
CLARENDON 2WSW   N/A     69  64  84 CALM      30.01R
CLAUDE 12SW      N/A     69  64  84 E3        30.04R
DIMMITT 2NE      N/A     65  63  92 S6        30.04R
FLOYDADA 2NNE    N/A     68  67  96 S12       30.02S
FRIONA 2NE       N/A     65  62  90 S10       30.05S
GOODLETT 3W      N/A     76  69  77 S8        29.92F
HART 3N          N/A     66  63  91 S2        30.04R
HEREFORD 2NW     N/A     66  63  89 CALM      30.05S
MCLEAN 1E        N/A     73  63  71 SW8       29.98S
MEMPHIS 1NE      N/A     76  66  71 SW6       29.95R
MULESHOE 2SSW    N/A     65  63  91 S6        30.03S
OLTON 6S         N/A     67  64  93 SE8       30.03R
PALO DURO SP     N/A     68  63  84 S2        30.05R
PAMPA 2E         N/A     72  63  74 SW9       30.01R
PLAINVIEW 1S     N/A     67  65  93 S6        30.02R
SILVERTON 7ESE   N/A     69  65  87 SE7       30.01S
TULIA 2ENE       N/A     68  66  93 SE2       30.03R
TURKEY 2WSW      N/A     71  67  88 S9        29.97R
UMBARGER 3NNE    N/A     66  64  93 SE3       30.06R
$$

TXZ033>036-039>041-045>048-180500
TEXAS TECH WEST TEXAS MESONET/SOUTH PLAINS

CITY           SKY/WX    TMP DP  RH WIND       PRES   REMARKS
AIKEN 3WSW       N/A     68  67  94 S10       30.03S
ANDREWS 2NE      N/A     69  66  90 NE10      30.03R
ANTON 6SSW       N/A     67  65  92 SE14      30.02S
BROWNFIELD 2S    N/A     66  64  93 E10       30.03S
DENVR CTY 7WNW   N/A     66  62  89 E12       30.04R
GAIL 2ESE        N/A     69  66  90 E7        29.99S
LAMESA 2SE       N/A     69  65  89 NE8       30.02S
LEVELLAND 4S     N/A     65  63  91 SE12      30.03S
LUBBOCK 3WNW     N/A     67  64  90 SE9       30.03R
MORTON 1ENE      N/A     65  63  94 SE7       30.04S
ODONNELL 1N      N/A     66  64  93 E8        30.02F
PLAINS 3N        N/A     66  64  93 E13       30.04S
RALLS 1SE        N/A     68  67  95 S5        30.03S
REESE CENTER     N/A     66  64  92 SE15      30.02S
SEAGRAVES 1SW    N/A     67  64  91 E9        30.03S
SEMINOLE 2NNE    N/A     67  64  90 E12       30.03R
SLATON 2NE       N/A     66  65  96 E6        30.02S
SNYDER 3E      LGT RAIN  69  68  96 NE6       30.00F
SUNDOWN 8SW      N/A     64  63  94 SE8       30.04S
TAHOKA 3NNE      N/A     66  64  94 E9        30.02S
WOLFFORTH 6SSW   N/A     67  66  97 SE12      30.02F
$$

TXZ031-032-036>038-042>044-180500-
TEXAS TECH WEST TEXAS MESONET/ROLLING PLAINS

CITY           SKY/WX    TMP DP  RH WIND       PRES   REMARKS
ASPERMONT 3NE    N/A     72  70  93 S3        29.96F
FLUVANNA 3WNW    N/A     68  65  91 E10       29.99F
GRAHAM 5SSW      N/A     67  64  90 SE6       30.01F
GUTHRIE 10WSW    N/A     71  68  92 S3        29.96S
HASKELL 1NW      N/A     73  69  88 SW3       29.95F
JAYTON 1SSE      N/A     70  68  94 SE2       29.96F
NORTHFIELD 1S    N/A     74  71  90 S8        29.95S
ODELL 4ENE       N/A     79  69  72 S9        29.92S
PADUCAH 10SW     N/A     72  68  87 S8        29.95S
POST 1NE       LGT RAIN  68  69 100 SE5       30.00F
RRING SPRGS 3N   N/A     71  69  95 S12       29.99S
SPUR 1W          N/A     70  67  92 CALM      29.98R
WEINERT 2NNE     N/A     73  70  88 SW10      29.94F
WHITE RVR 6NE    N/A     69  66  92 S7        30.01R
$$

TXZ052-054-060>062-072-078-127-140-154-169-180500-
TEXAS TECH WEST TEXAS MESONET/PERMIAN BASIN/
CONCHO VALLEY/BIG COUNTRY/EDWARDS PLATEAU

CITY           SKY/WX    TMP DP  RH WIND       PRES   REMARKS
COYANOSA 2N      N/A     81  64  56 SE7       29.94R
JUNCTION 1SSW    N/A     76  71  85 NE3       29.96R
MERTZON 3NNE     N/A     76  68  76 N2        29.98R
SAN ANGELO 7NW   N/A     76  66  71 E9        29.97R
STRLNG CT 4WSW   N/A     76  68  75 E12       29.99R
ST LAWRNCE 5SW   N/A     72  66  82 E10       29.98R
SWEETWATR 11SW   N/A     73  69  89 E10       30.00R
$$

TXZ055-058-074-075-080-082-180500-
TEXAS TECH WEST TEXAS MESONET/FAR WEST/SOUTHWEST MOUNTAINS/TRANS PECOS

CITY           SKY/WX    TMP DP  RH WIND       PRES   REMARKS
PRSMN GAP BBNP   N/A     79  66  63 N12       29.94S
GUADLPE MTN NP   N/A     69  56  63 NE3       30.14R
$$



USA.gov is the U.S. government's official web portal to all federal, state and local government web resources and services.